owner,sensor,date,latitude,longitude,vertical_datum,sea_water_temperature,qcFlag 
TABS,ioos:station:wmo:42051:1,2002-01-23T19:30:00Z,29.6350,-93.6417,-2.0,15.06,11111222 
TABS,ioos:station:wmo:42051:1,2002-01-23T20:00:00Z,29.6350,-93.6417,-2.0,14.77,11111222 
TABS,ioos:station:wmo:42051:1,2002-01-23T20:30:00Z,29.6350,-93.6417,-2.0,14.62,11111222 
TABS,ioos:station:wmo:42051:1,2002-01-23T21:00:00Z,29.6350,-93.6417,-2.0,14.52,11111222 
TABS,ioos:station:wmo:42051:1,2002-01-23T21:30:00Z,29.6350,-93.6417,-2.0,14.51,11111222 
TABS,ioos:station:wmo:42051:1,2002-01-23T22:00:00Z,29.6350,-93.6417,-2.0,14.65,11111222 
TABS,ioos:station:wmo:42051:1,2002-01-23T22:30:00Z,29.6350,-93.6417,-2.0,14.61,11111222 
TABS,ioos:station:wmo:42051:1,2002-01-23T23:00:00Z,29.6350,-93.6417,-2.0,14.62,11111222 
TABS,ioos:station:wmo:42051:1,2002-01-23T23:30:00Z,29.6350,-93.6417,-2.0,14.65,11111222 
TABS,ioos:station:wmo:42051:1,2002-01-24T00:00:00Z,29.6350,-93.6417,-2.0,14.62,11111222 
TABS,ioos:station:wmo:42051:1,2002-01-24T00:30:00Z,29.6350,-93.6417,-2.0,14.59,11111222 
TABS,ioos:station:wmo:42051:1,2002-01-24T01:00:00Z,29.6350,-93.6417,-2.0,14.57,11111222 
TABS,ioos:station:wmo:42051:1,2002-01-24T01:30:00Z,29.6350,-93.6417,-2.0,14.52,11111222 
TABS,ioos:station:wmo:42051:1,2002-01-24T02:00:00Z,29.6350,-93.6417,-2.0,14.51,11111222 
TABS,ioos:station:wmo:42051:1,2002-01-24T02:30:00Z,29.6350,-93.6417,-2.0,14.47,11111222 
TABS,ioos:station:wmo:42051:1,2002-01-24T03:00:00Z,29.6350,-93.6417,-2.0,14.45,11111222 
TABS,ioos:station:wmo:42051:1,2002-01-24T03:30:00Z,29.6350,-93.6417,-2.0,14.44,11111222 
TABS,ioos:station:wmo:42051:1,2002-01-24T04:00:00Z,29.6350,-93.6417,-2.0,14.5,11111222 
TABS,ioos:station:wmo:42051:1,2002-01-24T04:30:00Z,29.6350,-93.6417,-2.0,14.54,11111222 
TABS,ioos:station:wmo:42051:1,2002-01-24T05:00:00Z,29.6350,-93.6417,-2.0,14.65,11111222 
TABS,ioos:station:wmo:42051:1,2002-01-24T05:30:00Z,29.6350,-93.6417,-2.0,14.7,11111222 
TABS,ioos:station:wmo:42051:1,2002-01-24T06:00:00Z,29.6350,-93.6417,-2.0,14.58,11111222 
TABS,ioos:station:wmo:42051:1,2002-01-24T06:30:00Z,29.6350,-93.6417,-2.0,14.58,11111222 
TABS,ioos:station:wmo:42051:1,2002-01-24T07:00:00Z,29.6350,-93.6417,-2.0,14.55,11111222 
TABS,ioos:station:wmo:42051:1,2002-01-24T07:30:00Z,29.6350,-93.6417,-2.0,14.53,11111222 
TABS,ioos:station:wmo:42051:1,2002-01-24T08:00:00Z,29.6350,-93.6417,-2.0,14.58,11111222 
TABS,ioos:station:wmo:42051:1,2002-01-24T08:30:00Z,29.6350,-93.6417,-2.0,14.54,11111222 
TABS,ioos:station:wmo:42051:1,2002-01-24T09:00:00Z,29.6350,-93.6417,-2.0,14.52,11111222 
TABS,ioos:station:wmo:42051:1,2002-01-24T09:30:00Z,29.6350,-93.6417,-2.0,14.45,11111222 
TABS,ioos:station:wmo:42051:1,2002-01-24T10:00:00Z,29.6350,-93.6417,-2.0,14.42,11111222 
TABS,ioos:station:wmo:42051:1,2002-01-24T10:30:00Z,29.6350,-93.6417,-2.0,14.39,11111222 
TABS,ioos:station:wmo:42051:1,2002-01-24T11:00:00Z,29.6350,-93.6417,-2.0,14.36,11111222 
TABS,ioos:station:wmo:42051:1,2002-01-24T11:30:00Z,29.6350,-93.6417,-2.0,14.32,11111222 
TABS,ioos:station:wmo:42051:1,2002-01-24T12:00:00Z,29.6350,-93.6417,-2.0,14.26,11111222 
TABS,ioos:station:wmo:42051:1,2002-01-24T12:30:00Z,29.6350,-93.6417,-2.0,14.26,11111222 
TABS,ioos:station:wmo:42051:1,2002-01-24T13:00:00Z,29.6350,-93.6417,-2.0,14.41,11111222 
TABS,ioos:station:wmo:42051:1,2002-01-24T13:30:00Z,29.6350,-93.6417,-2.0,14.47,11111222 
TABS,ioos:station:wmo:42051:1,2002-01-24T14:00:00Z,29.6350,-93.6417,-2.0,14.46,11111222 
TABS,ioos:station:wmo:42051:1,2002-01-24T14:30:00Z,29.6350,-93.6417,-2.0,14.48,11111222 
TABS,ioos:station:wmo:42051:1,2002-01-24T15:00:00Z,29.6350,-93.6417,-2.0,14.47,11111222 
TABS,ioos:station:wmo:42051:1,2002-01-24T15:30:00Z,29.6350,-93.6417,-2.0,14.48,11111222 
TABS,ioos:station:wmo:42051:1,2002-01-24T16:00:00Z,29.6350,-93.6417,-2.0,14.46,11111222 
TABS,ioos:station:wmo:42051:1,2002-01-24T16:30:00Z,29.6350,-93.6417,-2.0,14.44,11111222 
TABS,ioos:station:wmo:42051:1,2002-01-24T17:00:00Z,29.6350,-93.6417,-2.0,14.38,11111222 
TABS,ioos:station:wmo:42051:1,2002-01-24T17:30:00Z,29.6350,-93.6417,-2.0,14.38,11111222 
TABS,ioos:station:wmo:42051:1,2002-01-24T18:00:00Z,29.6350,-93.6417,-2.0,14.4,11111222 
TABS,ioos:station:wmo:42051:1,2002-01-24T18:30:00Z,29.6350,-93.6417,-2.0,14.4,11111222 
TABS,ioos:station:wmo:42051:1,2002-01-24T19:00:00Z,29.6350,-93.6417,-2.0,14.47,11111222 
TABS,ioos:station:wmo:42051:1,2002-01-24T19:30:00Z,29.6350,-93.6417,-2.0,14.54,11111222 
TABS,ioos:station:wmo:42051:1,2002-01-24T20:00:00Z,29.6350,-93.6417,-2.0,14.68,11111222 
TABS,ioos:station:wmo:42051:1,2002-01-24T20:30:00Z,29.6350,-93.6417,-2.0,14.76,11111222 
TABS,ioos:station:wmo:42051:1,2002-01-24T21:00:00Z,29.6350,-93.6417,-2.0,14.75,11111222 
TABS,ioos:station:wmo:42051:1,2002-01-24T21:30:00Z,29.6350,-93.6417,-2.0,14.64,11111222 
TABS,ioos:station:wmo:42051:1,2002-01-24T22:00:00Z,29.6350,-93.6417,-2.0,14.64,11111222 
TABS,ioos:station:wmo:42051:1,2002-01-24T22:30:00Z,29.6350,-93.6417,-2.0,14.68,11111222 
TABS,ioos:station:wmo:42051:1,2002-01-24T23:00:00Z,29.6350,-93.6417,-2.0,14.7,11111222 
TABS,ioos:station:wmo:42051:1,2002-01-24T23:30:00Z,29.6350,-93.6417,-2.0,14.72,11111222 
TABS,ioos:station:wmo:42051:1,2002-01-25T00:00:00Z,29.6350,-93.6417,-2.0,14.77,11111222 
TABS,ioos:station:wmo:42051:1,2002-01-25T00:30:00Z,29.6350,-93.6417,-2.0,14.71,11111222 
TABS,ioos:station:wmo:42051:1,2002-01-25T01:00:00Z,29.6350,-93.6417,-2.0,14.65,11111222 
TABS,ioos:station:wmo:42051:1,2002-01-25T01:30:00Z,29.6350,-93.6417,-2.0,14.65,11111222 
TABS,ioos:station:wmo:42051:1,2002-01-25T02:00:00Z,29.6350,-93.6417,-2.0,14.67,11111222 
TABS,ioos:station:wmo:42051:1,2002-01-25T02:30:00Z,29.6350,-93.6417,-2.0,14.69,11111222 
TABS,ioos:station:wmo:42051:1,2002-01-25T03:00:00Z,29.6350,-93.6417,-2.0,14.69,11111222 
TABS,ioos:station:wmo:42051:1,2002-01-25T03:30:00Z,29.6350,-93.6417,-2.0,14.7,11111222 
TABS,ioos:station:wmo:42051:1,2002-01-25T04:00:00Z,29.6350,-93.6417,-2.0,14.75,11111222 
TABS,ioos:station:wmo:42051:1,2002-01-25T04:30:00Z,29.6350,-93.6417,-2.0,14.81,11111222 
TABS,ioos:station:wmo:42051:1,2002-01-25T05:00:00Z,29.6350,-93.6417,-2.0,14.79,11111222 
TABS,ioos:station:wmo:42051:1,2002-01-25T05:30:00Z,29.6350,-93.6417,-2.0,14.86,11111222 
TABS,ioos:station:wmo:42051:1,2002-01-25T06:00:00Z,29.6350,-93.6417,-2.0,14.88,11111222 
TABS,ioos:station:wmo:42051:1,2002-01-25T06:30:00Z,29.6350,-93.6417,-2.0,14.89,11111222 
TABS,ioos:station:wmo:42051:1,2002-01-25T07:00:00Z,29.6350,-93.6417,-2.0,14.9,11111222 
TABS,ioos:station:wmo:42051:1,2002-01-25T07:30:00Z,29.6350,-93.6417,-2.0,14.9,11111222 
TABS,ioos:station:wmo:42051:1,2002-01-25T08:00:00Z,29.6350,-93.6417,-2.0,14.9,11111222 
TABS,ioos:station:wmo:42051:1,2002-01-25T08:30:00Z,29.6350,-93.6417,-2.0,14.91,11111222 
TABS,ioos:station:wmo:42051:1,2002-01-25T09:00:00Z,29.6350,-93.6417,-2.0,14.92,11111222 
TABS,ioos:station:wmo:42051:1,2002-01-25T09:30:00Z,29.6350,-93.6417,-2.0,14.87,11111222 
TABS,ioos:station:wmo:42051:1,2002-01-25T10:00:00Z,29.6350,-93.6417,-2.0,14.93,11111222 
TABS,ioos:station:wmo:42051:1,2002-01-25T10:30:00Z,29.6350,-93.6417,-2.0,14.89,11111222 
TABS,ioos:station:wmo:42051:1,2002-01-25T11:00:00Z,29.6350,-93.6417,-2.0,14.92,11111222 
TABS,ioos:station:wmo:42051:1,2002-01-25T11:30:00Z,29.6350,-93.6417,-2.0,14.84,11111222 
TABS,ioos:station:wmo:42051:1,2002-01-25T12:00:00Z,29.6350,-93.6417,-2.0,14.87,11111222 
TABS,ioos:station:wmo:42051:1,2002-01-25T12:30:00Z,29.6350,-93.6417,-2.0,14.86,11111222 
TABS,ioos:station:wmo:42051:1,2002-01-25T13:00:00Z,29.6350,-93.6417,-2.0,14.74,11111222 
TABS,ioos:station:wmo:42051:1,2002-01-25T13:30:00Z,29.6350,-93.6417,-2.0,14.71,11111222 
TABS,ioos:station:wmo:42051:1,2002-01-25T14:00:00Z,29.6350,-93.6417,-2.0,14.67,11111222 
TABS,ioos:station:wmo:42051:1,2002-01-25T14:30:00Z,29.6350,-93.6417,-2.0,14.68,11111222 
TABS,ioos:station:wmo:42051:1,2002-01-25T15:30:00Z,29.6350,-93.6417,-2.0,14.71,11111222 
TABS,ioos:station:wmo:42051:1,2002-01-25T16:00:00Z,29.6350,-93.6417,-2.0,14.64,11111222 
TABS,ioos:station:wmo:42051:1,2002-01-25T16:30:00Z,29.6350,-93.6417,-2.0,14.65,11111222 
TABS,ioos:station:wmo:42051:1,2002-01-25T17:00:00Z,29.6350,-93.6417,-2.0,14.66,11111222 
TABS,ioos:station:wmo:42051:1,2002-01-25T17:30:00Z,29.6350,-93.6417,-2.0,14.65,11111222 
TABS,ioos:station:wmo:42051:1,2002-01-25T18:30:00Z,29.6350,-93.6417,-2.0,14.66,11111222 
TABS,ioos:station:wmo:42051:1,2002-01-25T19:00:00Z,29.6350,-93.6417,-2.0,14.7,11111222 
TABS,ioos:station:wmo:42051:1,2002-01-25T19:30:00Z,29.6350,-93.6417,-2.0,14.72,11111222 
TABS,ioos:station:wmo:42051:1,2002-01-25T20:00:00Z,29.6350,-93.6417,-2.0,14.73,11111222 
TABS,ioos:station:wmo:42051:1,2002-01-25T20:30:00Z,29.6350,-93.6417,-2.0,14.74,11111222 
TABS,ioos:station:wmo:42051:1,2002-01-25T21:00:00Z,29.6350,-93.6417,-2.0,14.74,11111222 
TABS,ioos:station:wmo:42051:1,2002-01-25T21:30:00Z,29.6350,-93.6417,-2.0,14.74,11111222 
TABS,ioos:station:wmo:42051:1,2002-01-25T22:00:00Z,29.6350,-93.6417,-2.0,14.73,11111222 
TABS,ioos:station:wmo:42051:1,2002-01-25T22:30:00Z,29.6350,-93.6417,-2.0,14.72,11111222 
TABS,ioos:station:wmo:42051:1,2002-01-25T23:00:00Z,29.6350,-93.6417,-2.0,14.73,11111222 
TABS,ioos:station:wmo:42051:1,2002-01-25T23:30:00Z,29.6350,-93.6417,-2.0,14.68,11111222 
TABS,ioos:station:wmo:42051:1,2002-01-26T00:00:00Z,29.6350,-93.6417,-2.0,14.67,11111222 
TABS,ioos:station:wmo:42051:1,2002-01-26T00:30:00Z,29.6350,-93.6417,-2.0,14.64,11111222 
TABS,ioos:station:wmo:42051:1,2002-01-26T01:00:00Z,29.6350,-93.6417,-2.0,14.61,11111222 
TABS,ioos:station:wmo:42051:1,2002-01-26T01:30:00Z,29.6350,-93.6417,-2.0,14.62,11111222 
TABS,ioos:station:wmo:42051:1,2002-01-26T02:00:00Z,29.6350,-93.6417,-2.0,14.53,11111222 
TABS,ioos:station:wmo:42051:1,2002-01-26T02:30:00Z,29.6350,-93.6417,-2.0,14.48,11111222 
TABS,ioos:station:wmo:42051:1,2002-01-26T03:00:00Z,29.6350,-93.6417,-2.0,14.49,11111222 
TABS,ioos:station:wmo:42051:1,2002-01-26T03:30:00Z,29.6350,-93.6417,-2.0,14.52,11111222 
TABS,ioos:station:wmo:42051:1,2002-01-26T04:00:00Z,29.6350,-93.6417,-2.0,14.43,11111222 
TABS,ioos:station:wmo:42051:1,2002-01-26T04:30:00Z,29.6350,-93.6417,-2.0,14.43,11111222 
TABS,ioos:station:wmo:42051:1,2002-01-26T05:00:00Z,29.6350,-93.6417,-2.0,14.5,11111222 
TABS,ioos:station:wmo:42051:1,2002-01-26T05:30:00Z,29.6350,-93.6417,-2.0,14.42,11111222 
TABS,ioos:station:wmo:42051:1,2002-01-26T06:00:00Z,29.6350,-93.6417,-2.0,14.47,11111222 
TABS,ioos:station:wmo:42051:1,2002-01-26T06:30:00Z,29.6350,-93.6417,-2.0,14.47,11111222 
TABS,ioos:station:wmo:42051:1,2002-01-26T07:00:00Z,29.6350,-93.6417,-2.0,14.43,11111222 
TABS,ioos:station:wmo:42051:1,2002-01-26T07:30:00Z,29.6350,-93.6417,-2.0,14.39,11111222 
TABS,ioos:station:wmo:42051:1,2002-01-26T08:00:00Z,29.6350,-93.6417,-2.0,14.39,11111222 
TABS,ioos:station:wmo:42051:1,2002-01-26T08:30:00Z,29.6350,-93.6417,-2.0,14.36,11111222 
TABS,ioos:station:wmo:42051:1,2002-01-26T09:00:00Z,29.6350,-93.6417,-2.0,14.29,11111222 
TABS,ioos:station:wmo:42051:1,2002-01-26T09:30:00Z,29.6350,-93.6417,-2.0,14.29,11111222 
TABS,ioos:station:wmo:42051:1,2002-01-26T10:00:00Z,29.6350,-93.6417,-2.0,14.23,11111222 
TABS,ioos:station:wmo:42051:1,2002-01-26T10:30:00Z,29.6350,-93.6417,-2.0,14.26,11111222 
TABS,ioos:station:wmo:42051:1,2002-01-26T11:00:00Z,29.6350,-93.6417,-2.0,14.28,11111222 
TABS,ioos:station:wmo:42051:1,2002-01-26T11:30:00Z,29.6350,-93.6417,-2.0,14.29,11111222 
TABS,ioos:station:wmo:42051:1,2002-01-26T12:00:00Z,29.6350,-93.6417,-2.0,14.28,11111222 
TABS,ioos:station:wmo:42051:1,2002-01-26T12:30:00Z,29.6350,-93.6417,-2.0,14.27,11111222 
TABS,ioos:station:wmo:42051:1,2002-01-26T13:00:00Z,29.6350,-93.6417,-2.0,14.28,11111222 
TABS,ioos:station:wmo:42051:1,2002-01-26T13:30:00Z,29.6350,-93.6417,-2.0,14.28,11111222 
TABS,ioos:station:wmo:42051:1,2002-01-26T14:00:00Z,29.6350,-93.6417,-2.0,14.23,11111222 
TABS,ioos:station:wmo:42051:1,2002-01-26T14:30:00Z,29.6350,-93.6417,-2.0,14.13,11111222 
TABS,ioos:station:wmo:42051:1,2002-01-26T15:00:00Z,29.6350,-93.6417,-2.0,14.15,11111222 
TABS,ioos:station:wmo:42051:1,2002-01-26T15:30:00Z,29.6350,-93.6417,-2.0,14.21,11111222 
TABS,ioos:station:wmo:42051:1,2002-01-26T16:00:00Z,29.6350,-93.6417,-2.0,14.26,11111222 
TABS,ioos:station:wmo:42051:1,2002-01-26T16:30:00Z,29.6350,-93.6417,-2.0,14.38,11111222 
TABS,ioos:station:wmo:42051:1,2002-01-26T17:00:00Z,29.6350,-93.6417,-2.0,14.44,11111222 
TABS,ioos:station:wmo:42051:1,2002-01-26T17:30:00Z,29.6350,-93.6417,-2.0,14.52,11111222 
TABS,ioos:station:wmo:42051:1,2002-01-26T18:30:00Z,29.6350,-93.6417,-2.0,14.66,11111222 
TABS,ioos:station:wmo:42051:1,2002-01-26T19:00:00Z,29.6350,-93.6417,-2.0,14.69,11111222 
TABS,ioos:station:wmo:42051:1,2002-01-26T19:30:00Z,29.6350,-93.6417,-2.0,14.71,11111222 
TABS,ioos:station:wmo:42051:1,2002-01-26T20:00:00Z,29.6350,-93.6417,-2.0,14.69,11111222 
TABS,ioos:station:wmo:42051:1,2002-01-26T20:30:00Z,29.6350,-93.6417,-2.0,14.76,11111222 
TABS,ioos:station:wmo:42051:1,2002-01-26T21:00:00Z,29.6350,-93.6417,-2.0,14.72,11111222 
TABS,ioos:station:wmo:42051:1,2002-01-26T21:30:00Z,29.6350,-93.6417,-2.0,14.69,11111222 
TABS,ioos:station:wmo:42051:1,2002-01-26T22:00:00Z,29.6350,-93.6417,-2.0,14.68,11111222 
TABS,ioos:station:wmo:42051:1,2002-01-26T22:30:00Z,29.6350,-93.6417,-2.0,14.66,11111222 
TABS,ioos:station:wmo:42051:1,2002-01-26T23:00:00Z,29.6350,-93.6417,-2.0,14.66,11111222 
TABS,ioos:station:wmo:42051:1,2002-01-26T23:30:00Z,29.6350,-93.6417,-2.0,14.67,11111222 
TABS,ioos:station:wmo:42051:1,2002-01-27T00:00:00Z,29.6350,-93.6417,-2.0,14.7,11111222 
TABS,ioos:station:wmo:42051:1,2002-01-27T00:30:00Z,29.6350,-93.6417,-2.0,14.71,11111222 
TABS,ioos:station:wmo:42051:1,2002-01-27T01:00:00Z,29.6350,-93.6417,-2.0,14.71,11111222 
TABS,ioos:station:wmo:42051:1,2002-01-27T01:30:00Z,29.6350,-93.6417,-2.0,14.69,11111222 
TABS,ioos:station:wmo:42051:1,2002-01-27T02:00:00Z,29.6350,-93.6417,-2.0,14.66,11111222 
TABS,ioos:station:wmo:42051:1,2002-01-27T02:30:00Z,29.6350,-93.6417,-2.0,14.65,11111222 
TABS,ioos:station:wmo:42051:1,2002-01-27T03:00:00Z,29.6350,-93.6417,-2.0,14.66,11111222 
TABS,ioos:station:wmo:42051:1,2002-01-27T03:30:00Z,29.6350,-93.6417,-2.0,14.66,11111222 
TABS,ioos:station:wmo:42051:1,2002-01-27T04:00:00Z,29.6350,-93.6417,-2.0,14.68,11111222 
TABS,ioos:station:wmo:42051:1,2002-01-27T04:30:00Z,29.6350,-93.6417,-2.0,14.67,11111222 
TABS,ioos:station:wmo:42051:1,2002-01-27T05:00:00Z,29.6350,-93.6417,-2.0,14.66,11111222 
TABS,ioos:station:wmo:42051:1,2002-01-27T05:30:00Z,29.6350,-93.6417,-2.0,14.65,11111222 
TABS,ioos:station:wmo:42051:1,2002-01-27T06:00:00Z,29.6350,-93.6417,-2.0,14.65,11111222 
TABS,ioos:station:wmo:42051:1,2002-01-27T06:30:00Z,29.6350,-93.6417,-2.0,14.64,11111222 
TABS,ioos:station:wmo:42051:1,2002-01-27T07:00:00Z,29.6350,-93.6417,-2.0,14.63,11111222 
TABS,ioos:station:wmo:42051:1,2002-01-27T07:30:00Z,29.6350,-93.6417,-2.0,14.62,11111222 
TABS,ioos:station:wmo:42051:1,2002-01-27T08:00:00Z,29.6350,-93.6417,-2.0,14.61,11111222 
TABS,ioos:station:wmo:42051:1,2002-01-27T08:30:00Z,29.6350,-93.6417,-2.0,14.59,11111222 
TABS,ioos:station:wmo:42051:1,2002-01-27T09:00:00Z,29.6350,-93.6417,-2.0,14.59,11111222 
TABS,ioos:station:wmo:42051:1,2002-01-27T09:30:00Z,29.6350,-93.6417,-2.0,14.59,11111222 
TABS,ioos:station:wmo:42051:1,2002-01-27T10:00:00Z,29.6350,-93.6417,-2.0,14.58,11111222 
TABS,ioos:station:wmo:42051:1,2002-01-27T10:30:00Z,29.6350,-93.6417,-2.0,14.57,11111222 
TABS,ioos:station:wmo:42051:1,2002-01-27T11:00:00Z,29.6350,-93.6417,-2.0,14.55,11111222 
TABS,ioos:station:wmo:42051:1,2002-01-27T11:30:00Z,29.6350,-93.6417,-2.0,14.57,11111222 
TABS,ioos:station:wmo:42051:1,2002-01-27T12:00:00Z,29.6350,-93.6417,-2.0,14.42,11111222 
TABS,ioos:station:wmo:42051:1,2002-01-27T12:30:00Z,29.6350,-93.6417,-2.0,14.41,11111222 
TABS,ioos:station:wmo:42051:1,2002-01-27T13:00:00Z,29.6350,-93.6417,-2.0,14.32,11111222 
TABS,ioos:station:wmo:42051:1,2002-01-27T13:30:00Z,29.6350,-93.6417,-2.0,14.3,11111222 
TABS,ioos:station:wmo:42051:1,2002-01-27T14:00:00Z,29.6350,-93.6417,-2.0,14.26,11111222 
TABS,ioos:station:wmo:42051:1,2002-01-27T14:30:00Z,29.6350,-93.6417,-2.0,14.22,11111222 
TABS,ioos:station:wmo:42051:1,2002-01-27T15:00:00Z,29.6350,-93.6417,-2.0,14.19,11111222 
TABS,ioos:station:wmo:42051:1,2002-01-27T15:30:00Z,29.6350,-93.6417,-2.0,14.22,11111222 
TABS,ioos:station:wmo:42051:1,2002-01-27T16:00:00Z,29.6350,-93.6417,-2.0,14.28,11111222 
TABS,ioos:station:wmo:42051:1,2002-01-27T16:30:00Z,29.6350,-93.6417,-2.0,14.35,11111222 
TABS,ioos:station:wmo:42051:1,2002-01-27T17:00:00Z,29.6350,-93.6417,-2.0,14.32,11111222 
TABS,ioos:station:wmo:42051:1,2002-01-27T17:30:00Z,29.6350,-93.6417,-2.0,14.41,11111222 
TABS,ioos:station:wmo:42051:1,2002-01-27T18:30:00Z,29.6350,-93.6417,-2.0,14.43,11111222 
TABS,ioos:station:wmo:42051:1,2002-01-27T19:00:00Z,29.6350,-93.6417,-2.0,14.43,11111222 
TABS,ioos:station:wmo:42051:1,2002-01-27T19:30:00Z,29.6350,-93.6417,-2.0,14.48,11111222 
TABS,ioos:station:wmo:42051:1,2002-01-27T20:00:00Z,29.6350,-93.6417,-2.0,14.44,11111222 
TABS,ioos:station:wmo:42051:1,2002-01-27T20:30:00Z,29.6350,-93.6417,-2.0,14.42,11111222 
TABS,ioos:station:wmo:42051:1,2002-01-27T21:00:00Z,29.6350,-93.6417,-2.0,14.42,11111222 
TABS,ioos:station:wmo:42051:1,2002-01-27T21:30:00Z,29.6350,-93.6417,-2.0,14.46,11111222 
TABS,ioos:station:wmo:42051:1,2002-01-27T22:00:00Z,29.6350,-93.6417,-2.0,14.49,11111222 
TABS,ioos:station:wmo:42051:1,2002-01-27T22:30:00Z,29.6350,-93.6417,-2.0,14.5,11111222 
TABS,ioos:station:wmo:42051:1,2002-01-27T23:00:00Z,29.6350,-93.6417,-2.0,14.57,11111222 
TABS,ioos:station:wmo:42051:1,2002-01-27T23:30:00Z,29.6350,-93.6417,-2.0,14.65,11111222 
TABS,ioos:station:wmo:42051:1,2002-01-28T00:00:00Z,29.6350,-93.6417,-2.0,14.6,11111222 
TABS,ioos:station:wmo:42051:1,2002-01-28T00:30:00Z,29.6350,-93.6417,-2.0,14.59,11111222 
TABS,ioos:station:wmo:42051:1,2002-01-28T01:00:00Z,29.6350,-93.6417,-2.0,14.61,11111222 
TABS,ioos:station:wmo:42051:1,2002-01-28T01:30:00Z,29.6350,-93.6417,-2.0,14.66,11111222 
TABS,ioos:station:wmo:42051:1,2002-01-28T02:00:00Z,29.6350,-93.6417,-2.0,14.7,11111222 
TABS,ioos:station:wmo:42051:1,2002-01-28T02:30:00Z,29.6350,-93.6417,-2.0,14.73,11111222 
TABS,ioos:station:wmo:42051:1,2002-01-28T03:00:00Z,29.6350,-93.6417,-2.0,14.72,11111222 
TABS,ioos:station:wmo:42051:1,2002-01-28T03:30:00Z,29.6350,-93.6417,-2.0,14.68,11111222 
TABS,ioos:station:wmo:42051:1,2002-01-28T04:00:00Z,29.6350,-93.6417,-2.0,14.64,11111222 
TABS,ioos:station:wmo:42051:1,2002-01-28T04:30:00Z,29.6350,-93.6417,-2.0,14.65,11111222 
TABS,ioos:station:wmo:42051:1,2002-01-28T05:00:00Z,29.6350,-93.6417,-2.0,14.63,11111222 
TABS,ioos:station:wmo:42051:1,2002-01-28T05:30:00Z,29.6350,-93.6417,-2.0,14.62,11111222 
TABS,ioos:station:wmo:42051:1,2002-01-28T06:00:00Z,29.6350,-93.6417,-2.0,14.6,11111222 
TABS,ioos:station:wmo:42051:1,2002-01-28T06:30:00Z,29.6350,-93.6417,-2.0,14.62,11111222 
TABS,ioos:station:wmo:42051:1,2002-01-28T07:00:00Z,29.6350,-93.6417,-2.0,14.63,11111222 
TABS,ioos:station:wmo:42051:1,2002-01-28T07:30:00Z,29.6350,-93.6417,-2.0,14.62,11111222 
TABS,ioos:station:wmo:42051:1,2002-01-28T08:00:00Z,29.6350,-93.6417,-2.0,14.62,11111222 
TABS,ioos:station:wmo:42051:1,2002-01-28T08:30:00Z,29.6350,-93.6417,-2.0,14.63,11111222 
TABS,ioos:station:wmo:42051:1,2002-01-28T09:00:00Z,29.6350,-93.6417,-2.0,14.61,11111222 
TABS,ioos:station:wmo:42051:1,2002-01-28T09:30:00Z,29.6350,-93.6417,-2.0,14.61,11111222 
TABS,ioos:station:wmo:42051:1,2002-01-28T10:00:00Z,29.6350,-93.6417,-2.0,14.6,11111222 
TABS,ioos:station:wmo:42051:1,2002-01-28T10:30:00Z,29.6350,-93.6417,-2.0,14.57,11111222 
TABS,ioos:station:wmo:42051:1,2002-01-28T11:00:00Z,29.6350,-93.6417,-2.0,14.55,11111222 
TABS,ioos:station:wmo:42051:1,2002-01-28T11:30:00Z,29.6350,-93.6417,-2.0,14.54,11111222 
TABS,ioos:station:wmo:42051:1,2002-01-28T12:00:00Z,29.6350,-93.6417,-2.0,14.55,11111222 
TABS,ioos:station:wmo:42051:1,2002-01-28T12:30:00Z,29.6350,-93.6417,-2.0,14.57,11111222 
TABS,ioos:station:wmo:42051:1,2002-01-28T13:00:00Z,29.6350,-93.6417,-2.0,14.58,11111222 
TABS,ioos:station:wmo:42051:1,2002-01-28T13:30:00Z,29.6350,-93.6417,-2.0,14.59,11111222 
TABS,ioos:station:wmo:42051:1,2002-01-28T14:00:00Z,29.6350,-93.6417,-2.0,14.6,11111222 
TABS,ioos:station:wmo:42051:1,2002-01-28T14:30:00Z,29.6350,-93.6417,-2.0,14.66,11111222 
TABS,ioos:station:wmo:42051:1,2002-01-28T15:00:00Z,29.6350,-93.6417,-2.0,14.69,11111222 
TABS,ioos:station:wmo:42051:1,2002-01-28T15:30:00Z,29.6350,-93.6417,-2.0,14.73,11111222 
TABS,ioos:station:wmo:42051:1,2002-01-28T16:00:00Z,29.6350,-93.6417,-2.0,14.75,11111222 
TABS,ioos:station:wmo:42051:1,2002-01-28T16:30:00Z,29.6350,-93.6417,-2.0,14.77,11111222 
TABS,ioos:station:wmo:42051:1,2002-01-28T17:00:00Z,29.6350,-93.6417,-2.0,14.79,11111222 
TABS,ioos:station:wmo:42051:1,2002-01-28T17:30:00Z,29.6350,-93.6417,-2.0,14.79,11111222 
TABS,ioos:station:wmo:42051:1,2002-01-28T18:00:00Z,29.6350,-93.6417,-2.0,14.83,11111222 
TABS,ioos:station:wmo:42051:1,2002-01-28T18:30:00Z,29.6350,-93.6417,-2.0,14.85,11111222 
TABS,ioos:station:wmo:42051:1,2002-01-28T19:00:00Z,29.6350,-93.6417,-2.0,14.87,11111222 
TABS,ioos:station:wmo:42051:1,2002-01-28T19:30:00Z,29.6350,-93.6417,-2.0,14.89,11111222 
TABS,ioos:station:wmo:42051:1,2002-01-28T20:00:00Z,29.6350,-93.6417,-2.0,14.9,11111222 
TABS,ioos:station:wmo:42051:1,2002-01-28T20:30:00Z,29.6350,-93.6417,-2.0,14.9,11111222 
TABS,ioos:station:wmo:42051:1,2002-01-28T21:00:00Z,29.6350,-93.6417,-2.0,14.86,11111222 
TABS,ioos:station:wmo:42051:1,2002-01-28T21:30:00Z,29.6350,-93.6417,-2.0,14.85,11111222 
TABS,ioos:station:wmo:42051:1,2002-01-28T22:00:00Z,29.6350,-93.6417,-2.0,14.87,11111222 
TABS,ioos:station:wmo:42051:1,2002-01-28T22:30:00Z,29.6350,-93.6417,-2.0,14.87,11111222 
TABS,ioos:station:wmo:42051:1,2002-01-28T23:00:00Z,29.6350,-93.6417,-2.0,14.89,11111222 
TABS,ioos:station:wmo:42051:1,2002-01-28T23:30:00Z,29.6350,-93.6417,-2.0,14.92,11111222 
TABS,ioos:station:wmo:42051:1,2002-01-29T00:00:00Z,29.6350,-93.6417,-2.0,14.91,11111222 
TABS,ioos:station:wmo:42051:1,2002-01-29T00:30:00Z,29.6350,-93.6417,-2.0,14.97,11111222 
TABS,ioos:station:wmo:42051:1,2002-01-29T01:00:00Z,29.6350,-93.6417,-2.0,15.0,11111222 
TABS,ioos:station:wmo:42051:1,2002-01-29T01:30:00Z,29.6350,-93.6417,-2.0,15.07,11111222 
TABS,ioos:station:wmo:42051:1,2002-01-29T02:00:00Z,29.6350,-93.6417,-2.0,15.05,11111222 
TABS,ioos:station:wmo:42051:1,2002-01-29T02:30:00Z,29.6350,-93.6417,-2.0,15.07,11111222 
TABS,ioos:station:wmo:42051:1,2002-01-29T03:00:00Z,29.6350,-93.6417,-2.0,15.05,11111222 
TABS,ioos:station:wmo:42051:1,2002-01-29T03:30:00Z,29.6350,-93.6417,-2.0,15.05,11111222 
TABS,ioos:station:wmo:42051:1,2002-01-29T04:00:00Z,29.6350,-93.6417,-2.0,15.04,11111222 
TABS,ioos:station:wmo:42051:1,2002-01-29T04:30:00Z,29.6350,-93.6417,-2.0,15.03,11111222 
TABS,ioos:station:wmo:42051:1,2002-01-29T05:00:00Z,29.6350,-93.6417,-2.0,15.06,11111222 
TABS,ioos:station:wmo:42051:1,2002-01-29T05:30:00Z,29.6350,-93.6417,-2.0,15.07,11111222 
TABS,ioos:station:wmo:42051:1,2002-01-29T06:00:00Z,29.6350,-93.6417,-2.0,15.07,11111222 
TABS,ioos:station:wmo:42051:1,2002-01-29T06:30:00Z,29.6350,-93.6417,-2.0,15.05,11111222 
TABS,ioos:station:wmo:42051:1,2002-01-29T07:00:00Z,29.6350,-93.6417,-2.0,15.04,11111222 
TABS,ioos:station:wmo:42051:1,2002-01-29T07:30:00Z,29.6350,-93.6417,-2.0,15.02,11111222 
TABS,ioos:station:wmo:42051:1,2002-01-29T08:00:00Z,29.6350,-93.6417,-2.0,15.01,11111222 
TABS,ioos:station:wmo:42051:1,2002-01-29T08:30:00Z,29.6350,-93.6417,-2.0,14.98,11111222 
TABS,ioos:station:wmo:42051:1,2002-01-29T09:00:00Z,29.6350,-93.6417,-2.0,14.96,11111222 
TABS,ioos:station:wmo:42051:1,2002-01-29T09:30:00Z,29.6350,-93.6417,-2.0,14.94,11111222 
TABS,ioos:station:wmo:42051:1,2002-01-29T10:00:00Z,29.6350,-93.6417,-2.0,14.94,11111222 
TABS,ioos:station:wmo:42051:1,2002-01-29T10:30:00Z,29.6350,-93.6417,-2.0,14.96,11111222 
TABS,ioos:station:wmo:42051:1,2002-01-29T11:00:00Z,29.6350,-93.6417,-2.0,14.95,11111222 